Location: Chevoux
(46.3801°N, 4.9476°E)
Time: 13:35:05
(UTC+00:00)

Transit 2A - All Passes

Search period start: 13 May 2021 00:00
Search period end: 23 May 2021 00:00
Orbit: 602 x 957 km, 66.7° (Epoch: 12 May)

Date Brightness Start Highest point End Pass type
(mag) Time Alt. Az. Time Alt. Az. Time Alt. Az.
13 May - 01:37:07 10° SW 01:41:38 75° NW 01:46:00 10° NNE visible
13 May - 03:23:10 10° WNW 03:25:31 14° NW 03:27:51 10° N visible
13 May - 08:37:35 10° NNW 08:41:25 26° NE 08:45:28 10° ESE daylight
13 May - 10:20:19 10° NW 10:24:45 49° WSW 10:29:33 10° SSE daylight
14 May - 01:02:56 10° SSW 01:07:28 74° ESE 01:11:49 10° NE visible
14 May - 02:47:58 10° W 02:51:04 18° NW 02:54:08 10° N visible
14 May - 08:03:41 10° N 08:07:02 20° NE 08:10:33 10° E daylight
14 May - 09:46:02 10° NW 09:50:36 73° WSW 09:55:35 10° SSE daylight
15 May - 00:28:58 10° SSW 00:33:20 48° ESE 00:37:32 10° NE visible
15 May - 02:13:01 10° W 02:16:40 24° NW 02:20:15 10° NNE visible
15 May - 07:29:53 10° N 07:32:36 15° NE 07:35:24 10° ENE daylight
15 May - 09:11:51 10° NNW 09:16:26 78° ENE 09:21:25 10° SE daylight
15 May - 10:56:30 10° WNW 10:59:04 15° WSW 11:01:44 10° SW daylight
15 May - 23:55:13 10° S 23:59:14 32° ESE 00:03:08 10° NE visible
16 May - 01:38:17 10° WSW 01:42:19 33° NW 01:46:17 10° NNE visible
16 May - 06:56:18 10° N 06:58:06 12° NNE 06:59:56 10° NE daylight
16 May - 08:37:43 10° NNW 08:42:13 54° NE 08:47:04 10° SE daylight
16 May - 10:21:30 10° WNW 10:25:03 22° WSW 10:28:49 10° SSW daylight
16 May - 23:21:47 10° SSE 23:25:12 21° ESE 23:28:32 10° ENE visible
17 May - 01:03:43 10° SW 01:08:02 47° NW 01:12:15 10° NNE visible
17 May - 02:51:32 10° NW 02:52:17 10° NNW 02:53:02 10° NNW visible
17 May - 08:03:40 10° NNW 08:07:56 38° NE 08:12:32 10° ESE daylight
17 May - 09:46:54 10° NW 09:51:01 31° WSW 09:55:26 10° S daylight
17 May - 22:48:50 10° SE 22:51:13 14° ESE 22:53:32 10° ENE visible
18 May - 00:29:19 10° SW 00:33:48 69° NW 00:38:09 10° NNE visible
18 May - 02:15:36 10° WNW 02:17:45 13° NNW 02:19:54 10° N visible
18 May - 07:29:40 10° NNW 07:33:38 28° NE 07:37:50 10° ESE daylight
18 May - 09:12:28 10° NW 09:16:55 46° WSW 09:21:44 10° S daylight
18 May - 23:55:07 10° SSW 23:59:37 80° ESE 00:03:59 10° NE visible
19 May - 01:40:20 10° W 01:43:17 17° NW 01:46:13 10° N visible
19 May - 06:55:45 10° N 06:59:16 21° NE 07:02:57 10° E daylight
19 May - 08:38:11 10° NW 08:42:47 68° WSW 08:47:47 10° SSE daylight
19 May - 23:21:06 10° SSW 23:25:28 52° ESE 23:29:43 10° NE visible
20 May - 01:05:21 10° W 01:08:52 23° NW 01:12:21 10° N visible
20 May - 06:21:55 10° N 06:24:50 16° NE 06:27:52 10° ENE daylight
20 May - 08:03:59 10° NNW 08:08:37 84° ENE 08:13:40 10° SE daylight
20 May - 09:48:51 10° WNW 09:51:13 14° WSW 09:53:40 10° SW daylight
20 May - 22:47:19 10° S 22:51:24 34° ESE 22:55:20 10° NE visible
21 May - 00:30:34 10° WSW 00:34:31 31° NW 00:38:24 10° NNE visible
21 May - 05:48:15 10° N 05:50:21 13° NNE 05:52:29 10° ENE daylight
21 May - 07:29:51 10° NNW 07:34:24 58° NE 07:39:21 10° SE daylight
21 May - 09:13:45 10° WNW 09:17:13 20° WSW 09:20:53 10° SSW daylight
21 May - 22:13:48 10° SSE 22:17:20 23° ESE 22:20:47 10° ENE visible
21 May - 23:55:58 10° WSW 00:00:13 43° NW 00:04:23 10° NNE visible
22 May - 05:15:25 10° NNE 05:15:48 10° NNE 05:16:12 10° NNE daylight
22 May - 06:55:47 10° NNW 07:00:09 41° NE 07:04:52 10° ESE daylight
22 May - 08:39:06 10° NW 08:43:10 29° WSW 08:47:33 10° S daylight
22 May - 21:40:45 10° SE 21:43:20 15° ESE 21:45:53 10° ENE visible
22 May - 23:21:32 10° SW 23:25:58 64° NW 23:30:18 10° NNE visible
